Back to catalog

RADIO 5

AliveAmateur RadioPO
NORAD 12999·PAYLOAD·🇷🇺 Russia

Launched Dec 17, 1981 from Plesetsk Cosmodrome

Loading…

Next Passes (next 24 hours)

TLE

FreshSource: Space-Track

Epoch: Sep 14, 2026, 08:47 UTC

1 12999U 81120C   26257.36598844  .00000079  00000-0  80498-3 0  9999
2 12999  82.9619  36.9364 0015656 131.9445 255.6297 12.05315361968329

Track RADIO 5 in real time with AllMySat

Download on the App Store